Year,Month,Day,Hour,Minute,Value (Times are PST for windspeed in km/hr)
2021,11,07,00,00,0.60
2021,11,07,00,01,0.10
2021,11,07,00,02,1.20
2021,11,07,00,03,0.00
2021,11,07,00,04,0.00
2021,11,07,00,05,0.70
2021,11,07,00,06,0.20
2021,11,07,00,07,0.10
2021,11,07,00,08,0.00
2021,11,07,00,09,0.00
2021,11,07,00,10,0.00
2021,11,07,00,11,0.00
2021,11,07,00,12,0.00
2021,11,07,00,13,0.00
2021,11,07,00,14,0.00
2021,11,07,00,15,0.00
2021,11,07,00,16,0.00
2021,11,07,00,17,0.00
2021,11,07,00,18,2.20
2021,11,07,00,19,1.00
2021,11,07,00,20,0.70
2021,11,07,00,21,0.10
2021,11,07,00,22,1.30
2021,11,07,00,23,0.10
2021,11,07,00,24,0.00
2021,11,07,00,25,0.00
2021,11,07,00,26,0.10
2021,11,07,00,27,1.10
2021,11,07,00,28,0.00
2021,11,07,00,29,0.90
2021,11,07,00,30,0.00
2021,11,07,00,31,0.00
2021,11,07,00,32,0.00
2021,11,07,00,33,1.00
2021,11,07,00,34,1.60
2021,11,07,00,35,0.60
2021,11,07,00,36,0.00
2021,11,07,00,37,0.00
2021,11,07,00,38,0.40
2021,11,07,00,39,1.00
2021,11,07,00,40,0.10
2021,11,07,00,41,0.00
2021,11,07,00,42,0.00
2021,11,07,00,43,0.70
2021,11,07,00,44,0.00
2021,11,07,00,45,0.70
2021,11,07,00,46,0.00
2021,11,07,00,47,0.00
2021,11,07,00,48,2.50
2021,11,07,00,49,1.40
2021,11,07,00,50,1.50
2021,11,07,00,51,0.80
2021,11,07,00,52,0.80
2021,11,07,00,53,0.00
2021,11,07,00,54,0.00
2021,11,07,00,55,0.00
2021,11,07,00,56,2.40
2021,11,07,00,57,1.00
2021,11,07,00,58,0.30
2021,11,07,00,59,0.00
2021,11,07,01,00,0.00
2021,11,07,01,01,0.00
2021,11,07,01,02,2.60
2021,11,07,01,03,1.20
2021,11,07,01,04,1.00
2021,11,07,01,05,0.70
2021,11,07,01,06,1.80
2021,11,07,01,07,1.10
2021,11,07,01,08,1.80
2021,11,07,01,09,0.00
2021,11,07,01,10,0.10
2021,11,07,01,11,1.60
2021,11,07,01,12,0.00
2021,11,07,01,13,0.50
2021,11,07,01,14,1.20
2021,11,07,01,15,0.00
2021,11,07,01,16,0.00
2021,11,07,01,17,0.00
2021,11,07,01,18,0.30
2021,11,07,01,19,3.20
2021,11,07,01,20,0.80
2021,11,07,01,21,0.00
2021,11,07,01,22,0.30
2021,11,07,01,23,0.70
2021,11,07,01,24,0.90
2021,11,07,01,25,0.00
2021,11,07,01,26,0.00
2021,11,07,01,27,0.00
2021,11,07,01,28,2.20
2021,11,07,01,29,2.80
2021,11,07,01,30,0.30
2021,11,07,01,31,1.20
2021,11,07,01,32,1.10
2021,11,07,01,33,1.90
2021,11,07,01,34,0.00
2021,11,07,01,35,0.00
2021,11,07,01,36,0.00
2021,11,07,01,37,0.50
2021,11,07,01,38,0.00
2021,11,07,01,39,0.00
2021,11,07,01,40,0.00
2021,11,07,01,41,0.00
2021,11,07,01,42,0.00
2021,11,07,01,43,0.00
2021,11,07,01,44,0.00
2021,11,07,01,45,0.00
2021,11,07,01,46,0.00
2021,11,07,01,47,0.00
2021,11,07,01,48,0.00
2021,11,07,01,49,0.00
2021,11,07,01,50,1.40
2021,11,07,01,51,2.00
2021,11,07,01,52,0.00
2021,11,07,01,53,1.00
2021,11,07,01,54,3.60
2021,11,07,01,55,4.00
2021,11,07,01,56,2.70
2021,11,07,01,57,1.80
2021,11,07,01,58,3.80
2021,11,07,01,59,1.10
2021,11,07,02,01,0.00
2021,11,07,02,02,0.00
2021,11,07,02,03,0.10
2021,11,07,02,04,0.00
2021,11,07,02,05,0.00
2021,11,07,02,06,0.00
2021,11,07,02,07,0.00
2021,11,07,02,08,0.00
2021,11,07,02,09,0.00
2021,11,07,02,10,0.00
2021,11,07,02,11,0.00
2021,11,07,02,12,0.00
2021,11,07,02,13,0.00
2021,11,07,02,14,0.00
2021,11,07,02,15,0.00
2021,11,07,02,16,0.00
2021,11,07,02,17,0.00
2021,11,07,02,18,0.00
2021,11,07,02,19,0.00
2021,11,07,02,20,3.10
2021,11,07,02,21,3.40
2021,11,07,02,22,4.20
2021,11,07,02,23,4.20
2021,11,07,02,24,4.40
2021,11,07,02,25,3.80
2021,11,07,02,26,5.20
2021,11,07,02,27,3.70
2021,11,07,02,28,3.40
2021,11,07,02,29,3.00
2021,11,07,02,30,3.00
2021,11,07,02,31,1.10
2021,11,07,02,32,0.70
2021,11,07,02,33,1.70
2021,11,07,02,34,2.10
2021,11,07,02,35,1.60
2021,11,07,02,36,1.60
2021,11,07,02,37,3.50
2021,11,07,02,38,1.70
2021,11,07,02,39,1.30
2021,11,07,02,40,0.10
2021,11,07,02,41,0.00
2021,11,07,02,42,3.00
2021,11,07,02,43,2.10
2021,11,07,02,44,0.70
2021,11,07,02,45,1.20
2021,11,07,02,46,1.10
2021,11,07,02,47,0.50
2021,11,07,02,48,0.90
2021,11,07,02,49,4.10
2021,11,07,02,50,1.40
2021,11,07,02,51,1.60
2021,11,07,02,52,5.20
2021,11,07,02,53,5.80
2021,11,07,02,54,4.30
2021,11,07,02,55,4.20
2021,11,07,02,56,1.30
2021,11,07,02,57,1.80
2021,11,07,02,58,1.50
2021,11,07,02,59,0.70
2021,11,07,03,00,6.40
2021,11,07,03,01,6.70
2021,11,07,03,02,3.70
2021,11,07,03,03,3.40
2021,11,07,03,04,3.60
2021,11,07,03,05,3.50
2021,11,07,03,06,1.40
2021,11,07,03,07,2.20
2021,11,07,03,08,0.10
2021,11,07,03,09,0.00
2021,11,07,03,10,4.00
2021,11,07,03,11,3.60
2021,11,07,03,12,4.60
2021,11,07,03,13,3.70
2021,11,07,03,14,6.10
2021,11,07,03,15,3.60
2021,11,07,03,16,3.80
2021,11,07,03,17,4.00
2021,11,07,03,18,5.60
2021,11,07,03,19,4.80
2021,11,07,03,20,5.00
2021,11,07,03,21,5.70
2021,11,07,03,22,3.90
2021,11,07,03,23,5.20
2021,11,07,03,24,1.50
2021,11,07,03,25,0.00
2021,11,07,03,26,0.00
2021,11,07,03,27,0.00
2021,11,07,03,28,1.30
2021,11,07,03,29,1.30
2021,11,07,03,30,0.40
2021,11,07,03,31,0.00
2021,11,07,03,32,2.40
2021,11,07,03,33,3.90
2021,11,07,03,34,3.20
2021,11,07,03,35,5.10
2021,11,07,03,36,2.00
2021,11,07,03,37,3.30
2021,11,07,03,38,3.30
2021,11,07,03,39,1.50
2021,11,07,03,40,1.90
2021,11,07,03,41,2.10
2021,11,07,03,42,0.50
2021,11,07,03,43,2.30
2021,11,07,03,44,2.20
2021,11,07,03,45,2.70
2021,11,07,03,46,1.10
2021,11,07,03,47,1.10
2021,11,07,03,48,1.40
2021,11,07,03,49,0.10
2021,11,07,03,50,0.60
2021,11,07,03,51,1.30
2021,11,07,03,52,2.90
2021,11,07,03,53,2.70
2021,11,07,03,54,2.30
2021,11,07,03,55,2.70
2021,11,07,03,56,5.30
2021,11,07,03,57,4.60
2021,11,07,03,58,3.00
2021,11,07,03,59,2.00
2021,11,07,04,00,2.80
2021,11,07,04,01,4.40
2021,11,07,04,02,2.50
2021,11,07,04,03,1.90
2021,11,07,04,04,3.90
2021,11,07,04,05,4.50
2021,11,07,04,06,3.00
2021,11,07,04,07,3.00
2021,11,07,04,08,4.60
2021,11,07,04,09,3.80
2021,11,07,04,10,5.60
2021,11,07,04,11,4.50
2021,11,07,04,12,4.30
2021,11,07,04,13,4.60
2021,11,07,04,14,5.20
2021,11,07,04,15,4.80
2021,11,07,04,16,2.20
2021,11,07,04,17,1.80
2021,11,07,04,18,2.70
2021,11,07,04,19,2.70
2021,11,07,04,20,2.70
2021,11,07,04,21,1.60
2021,11,07,04,22,3.20
2021,11,07,04,23,2.50
2021,11,07,04,24,0.00
2021,11,07,04,25,0.00
2021,11,07,04,26,0.00
2021,11,07,04,27,3.40
2021,11,07,04,28,1.90
2021,11,07,04,29,3.10
2021,11,07,04,30,2.00
2021,11,07,04,31,4.20
2021,11,07,04,32,3.00
2021,11,07,04,33,5.20
2021,11,07,04,34,2.80
2021,11,07,04,35,2.10
2021,11,07,04,36,2.60
2021,11,07,04,37,2.40
2021,11,07,04,38,4.10
2021,11,07,04,39,1.50
2021,11,07,04,40,3.40
2021,11,07,04,41,0.20
2021,11,07,04,42,0.00
2021,11,07,04,43,0.30
2021,11,07,04,44,0.10
2021,11,07,04,45,0.00
2021,11,07,04,46,1.00
2021,11,07,04,47,1.00
2021,11,07,04,48,2.70
2021,11,07,04,49,3.20
2021,11,07,04,50,2.30
2021,11,07,04,51,0.00
2021,11,07,04,52,3.00
2021,11,07,04,53,2.30
2021,11,07,04,54,2.10
2021,11,07,04,55,2.50
2021,11,07,04,56,2.70
2021,11,07,04,57,1.30
2021,11,07,04,58,0.00
2021,11,07,04,59,0.00
2021,11,07,05,00,0.00
2021,11,07,05,01,0.00
2021,11,07,05,02,0.00
2021,11,07,05,03,0.20
2021,11,07,05,04,0.00
2021,11,07,05,05,0.40
2021,11,07,05,06,0.60
2021,11,07,05,07,0.20
2021,11,07,05,08,0.00
2021,11,07,05,09,0.80
2021,11,07,05,10,0.00
2021,11,07,05,11,0.10
2021,11,07,05,12,0.00
2021,11,07,05,13,0.00
2021,11,07,05,14,0.00
2021,11,07,05,15,0.50
2021,11,07,05,16,2.60
2021,11,07,05,17,2.60
2021,11,07,05,18,4.20
2021,11,07,05,19,3.90
2021,11,07,05,20,7.30
2021,11,07,05,21,3.80
2021,11,07,05,22,3.10
2021,11,07,05,23,2.30
2021,11,07,05,24,0.20
2021,11,07,05,25,2.30
2021,11,07,05,26,2.00
2021,11,07,05,27,1.40
2021,11,07,05,28,0.00
2021,11,07,05,29,0.30
2021,11,07,05,30,3.90
2021,11,07,05,31,2.90
2021,11,07,05,32,2.00
2021,11,07,05,33,2.10
2021,11,07,05,34,1.70
2021,11,07,05,35,1.10
2021,11,07,05,36,1.20
2021,11,07,05,37,1.60
2021,11,07,05,38,1.00
2021,11,07,05,39,0.00
2021,11,07,05,40,1.70
2021,11,07,05,41,0.90
2021,11,07,05,42,1.00
2021,11,07,05,43,0.60
2021,11,07,05,44,0.20
2021,11,07,05,45,3.40
2021,11,07,05,46,1.80
2021,11,07,05,47,0.00
2021,11,07,05,48,0.00
2021,11,07,05,49,0.40
2021,11,07,05,50,0.00
2021,11,07,05,51,0.00
2021,11,07,05,52,1.80
2021,11,07,05,53,1.60
2021,11,07,05,54,1.20
2021,11,07,05,55,0.70
2021,11,07,05,56,0.60
2021,11,07,05,57,1.20
2021,11,07,05,58,0.80
2021,11,07,05,59,0.20
2021,11,07,06,00,1.70
2021,11,07,06,01,2.20
2021,11,07,06,02,1.10
2021,11,07,06,03,0.00
2021,11,07,06,04,0.50
2021,11,07,06,05,1.10
2021,11,07,06,06,1.70
2021,11,07,06,07,0.70
2021,11,07,06,08,0.00
2021,11,07,06,09,0.00
2021,11,07,06,10,0.00
2021,11,07,06,11,0.00
2021,11,07,06,12,0.00
2021,11,07,06,13,0.00
2021,11,07,06,14,0.00
2021,11,07,06,15,0.00
2021,11,07,06,16,3.10
2021,11,07,06,17,3.60
2021,11,07,06,18,3.00
2021,11,07,06,19,2.60
2021,11,07,06,20,3.00
2021,11,07,06,21,2.10
2021,11,07,06,22,3.80
2021,11,07,06,23,2.00
2021,11,07,06,24,1.60
2021,11,07,06,25,4.70
2021,11,07,06,26,3.70
2021,11,07,06,27,2.80
2021,11,07,06,28,2.00
2021,11,07,06,29,3.80
2021,11,07,06,30,3.40
2021,11,07,06,31,4.10
2021,11,07,06,32,5.80
2021,11,07,06,33,4.10
2021,11,07,06,34,3.60
2021,11,07,06,35,2.40
2021,11,07,06,36,1.10
2021,11,07,06,37,2.20
2021,11,07,06,38,0.00
2021,11,07,06,39,2.10
2021,11,07,06,40,2.60
2021,11,07,06,41,4.10
2021,11,07,06,42,1.30
2021,11,07,06,43,3.30
2021,11,07,06,44,2.70
2021,11,07,06,45,3.30
2021,11,07,06,46,2.20
2021,11,07,06,47,1.70
2021,11,07,06,48,5.10
2021,11,07,06,49,3.20
2021,11,07,06,50,6.40
2021,11,07,06,51,2.60
2021,11,07,06,52,0.20
2021,11,07,06,53,1.10
2021,11,07,06,54,3.40
2021,11,07,06,55,3.90
2021,11,07,06,56,1.50
2021,11,07,06,57,0.00
2021,11,07,06,58,0.00
2021,11,07,06,59,0.00
2021,11,07,07,00,1.40
2021,11,07,07,01,3.10
2021,11,07,07,02,4.50
2021,11,07,07,03,5.30
2021,11,07,07,04,5.10
2021,11,07,07,05,6.30
2021,11,07,07,06,7.20
2021,11,07,07,07,5.20
2021,11,07,07,08,1.30
2021,11,07,07,09,2.60
2021,11,07,07,10,1.60
2021,11,07,07,11,4.90
2021,11,07,07,12,4.10
2021,11,07,07,13,4.50
2021,11,07,07,14,3.00
2021,11,07,07,15,0.30
2021,11,07,07,16,6.10
2021,11,07,07,17,7.80
2021,11,07,07,18,8.00
2021,11,07,07,19,4.50
2021,11,07,07,20,7.00
2021,11,07,07,21,5.40
2021,11,07,07,22,5.50
2021,11,07,07,23,5.80
2021,11,07,07,24,7.10
2021,11,07,07,25,7.50
2021,11,07,07,26,8.10
2021,11,07,07,27,5.20
2021,11,07,07,28,10.00
2021,11,07,07,29,7.50
2021,11,07,07,30,6.00
2021,11,07,07,31,5.50
2021,11,07,07,32,4.60
2021,11,07,07,33,2.30
2021,11,07,07,34,5.70
2021,11,07,07,35,4.40
2021,11,07,07,36,3.00
2021,11,07,07,37,3.50
2021,11,07,07,38,3.80
2021,11,07,07,39,4.20
2021,11,07,07,40,4.10
2021,11,07,07,41,5.10
2021,11,07,07,42,5.60
2021,11,07,07,43,4.40
2021,11,07,07,44,2.90
2021,11,07,07,45,8.00
2021,11,07,07,46,8.00
2021,11,07,07,47,8.30
2021,11,07,07,48,3.60
2021,11,07,07,49,2.90
2021,11,07,07,50,4.80
2021,11,07,07,51,2.50
2021,11,07,07,52,0.90
2021,11,07,07,53,4.40
2021,11,07,07,54,7.20
2021,11,07,07,55,3.70
2021,11,07,07,56,3.70
2021,11,07,07,57,4.90
2021,11,07,07,58,6.00
2021,11,07,07,59,5.70
2021,11,07,08,00,3.00
2021,11,07,08,01,2.00
2021,11,07,08,02,5.60
2021,11,07,08,03,3.80
2021,11,07,08,04,6.40
2021,11,07,08,05,4.50
2021,11,07,08,06,6.70
2021,11,07,08,07,6.10
2021,11,07,08,08,4.90
2021,11,07,08,09,3.00
2021,11,07,08,10,2.60
2021,11,07,08,11,4.90
2021,11,07,08,12,5.30
2021,11,07,08,13,4.20
2021,11,07,08,14,6.80
2021,11,07,08,15,8.30
2021,11,07,08,16,5.70
2021,11,07,08,17,6.40
2021,11,07,08,18,6.30
2021,11,07,08,19,8.70
2021,11,07,08,20,9.80
2021,11,07,08,21,7.90
2021,11,07,08,22,6.10
2021,11,07,08,23,6.40
2021,11,07,08,24,7.70
2021,11,07,08,25,7.10
2021,11,07,08,26,4.00
2021,11,07,08,27,7.60
2021,11,07,08,28,5.90
2021,11,07,08,29,4.00
2021,11,07,08,30,5.40
2021,11,07,08,31,6.60
2021,11,07,08,32,6.20
2021,11,07,08,33,5.10
2021,11,07,08,34,6.40
2021,11,07,08,35,7.70
2021,11,07,08,36,7.70
2021,11,07,08,37,6.00
2021,11,07,08,38,5.00
2021,11,07,08,39,4.30
2021,11,07,08,40,5.50
2021,11,07,08,41,7.00
2021,11,07,08,42,7.50
2021,11,07,08,43,7.20
2021,11,07,08,44,6.10
2021,11,07,08,45,10.40
2021,11,07,08,46,6.90
2021,11,07,08,47,4.70
2021,11,07,08,48,4.50
2021,11,07,08,49,9.70
2021,11,07,08,50,7.60
2021,11,07,08,51,9.50
2021,11,07,08,52,8.10
2021,11,07,08,53,6.40
2021,11,07,08,54,6.00
2021,11,07,08,55,5.10
2021,11,07,08,56,8.50
2021,11,07,08,57,10.10
2021,11,07,08,58,6.60
2021,11,07,08,59,5.30
2021,11,07,09,00,9.50
2021,11,07,09,01,8.30
2021,11,07,09,02,5.50
2021,11,07,09,03,4.40
2021,11,07,09,04,8.00
2021,11,07,09,05,8.50
2021,11,07,09,06,7.50
2021,11,07,09,07,6.70
2021,11,07,09,08,9.80
2021,11,07,09,09,5.50
2021,11,07,09,10,2.40
2021,11,07,09,11,2.50
2021,11,07,09,12,2.40
2021,11,07,09,13,3.40
2021,11,07,09,14,6.20
2021,11,07,09,15,2.90
2021,11,07,09,16,4.50
2021,11,07,09,17,3.80
2021,11,07,09,18,6.00
2021,11,07,09,19,3.30
2021,11,07,09,20,0.20
2021,11,07,09,21,4.20
2021,11,07,09,22,2.70
2021,11,07,09,23,4.30
2021,11,07,09,24,6.10
2021,11,07,09,25,5.90
2021,11,07,09,26,1.50
2021,11,07,09,27,0.00
2021,11,07,09,28,0.00
2021,11,07,09,29,0.00
2021,11,07,09,30,3.10
2021,11,07,09,31,2.60
2021,11,07,09,32,4.40
2021,11,07,09,33,1.90
2021,11,07,09,34,0.50
2021,11,07,09,35,2.60
2021,11,07,09,36,2.80
2021,11,07,09,37,3.80
2021,11,07,09,38,2.70
2021,11,07,09,39,4.00
2021,11,07,09,40,3.80
2021,11,07,09,41,1.80
2021,11,07,09,42,2.90
2021,11,07,09,43,0.80
2021,11,07,09,44,1.10
2021,11,07,09,45,0.40
2021,11,07,09,46,0.00
2021,11,07,09,47,0.00
2021,11,07,09,48,0.00
2021,11,07,09,49,1.10
2021,11,07,09,50,2.30
2021,11,07,09,51,4.20
2021,11,07,09,52,3.30
2021,11,07,09,53,1.90
2021,11,07,09,54,4.00
2021,11,07,09,55,0.70
2021,11,07,09,56,2.10
2021,11,07,09,57,2.50
2021,11,07,09,58,3.80
2021,11,07,09,59,0.80
2021,11,07,10,00,1.80
2021,11,07,10,01,4.80
2021,11,07,10,02,5.40
2021,11,07,10,03,2.10
2021,11,07,10,04,0.30
2021,11,07,10,05,0.30
2021,11,07,10,06,4.10
2021,11,07,10,07,4.50
2021,11,07,10,08,4.00
2021,11,07,10,09,7.40
2021,11,07,10,10,7.30
2021,11,07,10,11,6.00
2021,11,07,10,12,4.20
2021,11,07,10,13,6.90
2021,11,07,10,14,5.20
2021,11,07,10,15,2.60
2021,11,07,10,16,2.90
2021,11,07,10,17,8.50
2021,11,07,10,18,4.60
2021,11,07,10,19,1.60
2021,11,07,10,20,0.00
2021,11,07,10,21,1.70
2021,11,07,10,22,5.10
2021,11,07,10,23,3.40
2021,11,07,10,24,5.60
2021,11,07,10,25,5.60
2021,11,07,10,26,4.90
2021,11,07,10,27,4.50
2021,11,07,10,28,3.50
2021,11,07,10,29,3.30
2021,11,07,10,30,2.80
2021,11,07,10,31,2.10
2021,11,07,10,32,3.00
2021,11,07,10,33,3.70
2021,11,07,10,34,5.10
2021,11,07,10,35,6.40
2021,11,07,10,36,6.10
2021,11,07,10,37,3.80
2021,11,07,10,38,5.00
2021,11,07,10,39,4.50
2021,11,07,10,40,7.50
2021,11,07,10,41,10.10
2021,11,07,10,42,11.60
2021,11,07,10,43,6.90
2021,11,07,10,44,9.90
2021,11,07,10,45,7.40
2021,11,07,10,46,5.70
2021,11,07,10,47,8.10
2021,11,07,10,48,7.70
2021,11,07,10,49,7.20
2021,11,07,10,50,8.30
2021,11,07,10,51,7.60
2021,11,07,10,52,3.80
2021,11,07,10,53,6.30
2021,11,07,10,54,9.30
2021,11,07,10,55,5.80
2021,11,07,10,56,7.90
2021,11,07,10,57,6.70
2021,11,07,10,58,7.40
2021,11,07,10,59,5.20
2021,11,07,11,00,3.70
2021,11,07,11,01,0.60
2021,11,07,11,02,5.80
2021,11,07,11,03,4.90
2021,11,07,11,04,3.30
2021,11,07,11,05,2.10
2021,11,07,11,06,7.60
2021,11,07,11,07,9.50
2021,11,07,11,08,6.10
2021,11,07,11,09,5.60
2021,11,07,11,10,3.70
2021,11,07,11,11,8.20
2021,11,07,11,12,5.10
2021,11,07,11,13,5.70
2021,11,07,11,14,2.90
2021,11,07,11,15,6.20
2021,11,07,11,16,4.90
2021,11,07,11,17,5.50
2021,11,07,11,18,4.70
2021,11,07,11,19,7.90
2021,11,07,11,20,6.20
2021,11,07,11,21,5.50
2021,11,07,11,22,6.60
2021,11,07,11,23,5.90
2021,11,07,11,24,4.90
2021,11,07,11,25,7.90
2021,11,07,11,26,10.40
2021,11,07,11,27,4.90
2021,11,07,11,28,5.50
2021,11,07,11,29,6.00
2021,11,07,11,30,7.80
2021,11,07,11,31,6.00
2021,11,07,11,32,7.30
2021,11,07,11,33,6.40
2021,11,07,11,34,6.20
2021,11,07,11,35,3.30
2021,11,07,11,36,6.80
2021,11,07,11,37,7.70
2021,11,07,11,38,10.90
2021,11,07,11,39,9.10
2021,11,07,11,40,6.00
2021,11,07,11,41,3.60
2021,11,07,11,42,4.60
2021,11,07,11,43,5.10
2021,11,07,11,44,4.60
2021,11,07,11,45,6.40
2021,11,07,11,46,6.40
2021,11,07,11,47,10.60
2021,11,07,11,48,5.90
2021,11,07,11,49,7.50
2021,11,07,11,50,4.40
2021,11,07,11,51,2.90
2021,11,07,11,52,6.00
2021,11,07,11,53,1.10
2021,11,07,11,54,3.80
2021,11,07,11,55,4.50
2021,11,07,11,56,3.70
2021,11,07,11,57,3.30
2021,11,07,11,58,3.70
2021,11,07,11,59,3.60
2021,11,07,12,00,4.40
2021,11,07,12,01,4.50
2021,11,07,12,02,0.90
2021,11,07,12,03,0.50
2021,11,07,12,04,3.00
2021,11,07,12,05,3.90
2021,11,07,12,06,6.80
2021,11,07,12,07,4.90
2021,11,07,12,08,3.20
2021,11,07,12,09,4.20
2021,11,07,12,10,3.60
2021,11,07,12,11,5.10
2021,11,07,12,12,5.80
2021,11,07,12,13,4.40
2021,11,07,12,14,4.10
2021,11,07,12,15,2.20
2021,11,07,12,16,2.60
2021,11,07,12,17,4.40
2021,11,07,12,18,4.00
2021,11,07,12,19,5.60
2021,11,07,12,20,4.70
2021,11,07,12,21,5.90
2021,11,07,12,22,7.60
2021,11,07,12,23,3.90
2021,11,07,12,24,2.80
2021,11,07,12,25,5.80
2021,11,07,12,26,2.60
2021,11,07,12,27,4.20
2021,11,07,12,28,5.10
2021,11,07,12,29,7.20
2021,11,07,12,30,1.90
2021,11,07,12,31,3.00
2021,11,07,12,32,6.30
2021,11,07,12,33,8.30
2021,11,07,12,34,7.10
2021,11,07,12,35,3.60
2021,11,07,12,36,3.60
2021,11,07,12,37,5.10
2021,11,07,12,38,7.50
2021,11,07,12,39,6.60
2021,11,07,12,40,8.20
2021,11,07,12,41,4.50
2021,11,07,12,42,4.80
2021,11,07,12,43,2.80
2021,11,07,12,44,4.80
2021,11,07,12,45,2.20
2021,11,07,12,46,1.00
2021,11,07,12,47,4.80
2021,11,07,12,48,3.70
2021,11,07,12,49,3.70
2021,11,07,12,50,3.70
2021,11,07,12,51,5.60
2021,11,07,12,52,3.50
2021,11,07,12,53,3.30
2021,11,07,12,54,3.00
2021,11,07,12,55,5.40
2021,11,07,12,56,3.60
2021,11,07,12,57,4.70
2021,11,07,12,58,4.40
2021,11,07,12,59,4.30
2021,11,07,13,00,5.40
2021,11,07,13,01,3.70
2021,11,07,13,02,4.60
2021,11,07,13,03,5.60
2021,11,07,13,04,7.20
2021,11,07,13,05,4.10
2021,11,07,13,06,3.60
2021,11,07,13,07,6.80
2021,11,07,13,08,4.50
2021,11,07,13,09,3.90
2021,11,07,13,10,6.20
2021,11,07,13,11,4.20
2021,11,07,13,12,5.30
2021,11,07,13,13,6.50
2021,11,07,13,14,5.10
2021,11,07,13,15,4.60
2021,11,07,13,16,4.50
2021,11,07,13,17,4.10
2021,11,07,13,18,3.10
2021,11,07,13,19,3.40
2021,11,07,13,20,3.30
2021,11,07,13,21,4.10
2021,11,07,13,22,5.20
2021,11,07,13,23,2.20
2021,11,07,13,24,3.20
2021,11,07,13,25,2.10
2021,11,07,13,26,3.90
2021,11,07,13,27,4.60
2021,11,07,13,28,4.90
2021,11,07,13,29,3.00
2021,11,07,13,30,2.80
2021,11,07,13,31,4.00
2021,11,07,13,32,2.00
2021,11,07,13,33,2.70
2021,11,07,13,34,4.10
2021,11,07,13,35,4.60
2021,11,07,13,36,7.80
2021,11,07,13,37,3.10
2021,11,07,13,38,4.50
2021,11,07,13,39,4.20
2021,11,07,13,40,3.90
2021,11,07,13,41,4.00
2021,11,07,13,42,4.20
2021,11,07,13,43,5.40
2021,11,07,13,44,4.10
2021,11,07,13,45,0.40
2021,11,07,13,46,0.60
2021,11,07,13,47,1.40
2021,11,07,13,48,1.60
2021,11,07,13,49,3.40
2021,11,07,13,50,2.30
2021,11,07,13,51,1.10
2021,11,07,13,52,0.60
2021,11,07,13,53,0.10
2021,11,07,13,54,0.00
2021,11,07,13,55,0.00
2021,11,07,13,56,0.00
2021,11,07,13,57,0.10
2021,11,07,13,58,2.60
2021,11,07,13,59,2.30
2021,11,07,14,00,2.50
2021,11,07,14,01,1.50
2021,11,07,14,02,0.20
2021,11,07,14,03,0.00
2021,11,07,14,04,0.20
2021,11,07,14,05,0.00
2021,11,07,14,06,0.00
2021,11,07,14,07,0.00
2021,11,07,14,08,0.20
2021,11,07,14,09,2.40
2021,11,07,14,10,1.60
2021,11,07,14,11,0.70
2021,11,07,14,12,0.10
2021,11,07,14,13,0.50
2021,11,07,14,14,1.50
2021,11,07,14,15,1.80
2021,11,07,14,16,2.20
2021,11,07,14,17,4.60
2021,11,07,14,18,1.50
2021,11,07,14,19,1.30
2021,11,07,14,20,0.00
2021,11,07,14,21,1.60
2021,11,07,14,22,1.50
2021,11,07,14,23,0.00
2021,11,07,14,24,1.20
2021,11,07,14,25,1.90
2021,11,07,14,26,2.20
2021,11,07,14,27,2.70
2021,11,07,14,28,2.20
2021,11,07,14,29,2.90
2021,11,07,14,30,0.70
2021,11,07,14,31,0.00
2021,11,07,14,32,1.10
2021,11,07,14,33,0.70
2021,11,07,14,34,2.20
2021,11,07,14,35,5.10
2021,11,07,14,36,3.80
2021,11,07,14,37,4.60
2021,11,07,14,38,2.50
2021,11,07,14,39,4.30
2021,11,07,14,40,3.60
2021,11,07,14,41,3.20
2021,11,07,14,42,0.30
2021,11,07,14,43,2.40
2021,11,07,14,44,0.60
2021,11,07,14,45,1.60
2021,11,07,14,46,3.40
2021,11,07,14,47,2.90
2021,11,07,14,48,3.50
2021,11,07,14,49,2.40
2021,11,07,14,50,0.10
2021,11,07,14,51,5.20
2021,11,07,14,52,4.00
2021,11,07,14,53,5.10
2021,11,07,14,54,7.20
2021,11,07,14,55,4.70
2021,11,07,14,56,1.90
2021,11,07,14,57,0.00
2021,11,07,14,58,0.00
2021,11,07,14,59,0.00
2021,11,07,15,00,0.00
2021,11,07,15,01,0.00
2021,11,07,15,02,0.00
2021,11,07,15,03,0.00
2021,11,07,15,04,0.00
2021,11,07,15,05,0.00
2021,11,07,15,06,3.10
2021,11,07,15,07,3.30
2021,11,07,15,08,1.00
2021,11,07,15,09,0.20
2021,11,07,15,10,1.70
2021,11,07,15,11,0.40
2021,11,07,15,12,0.10
2021,11,07,15,13,0.00
2021,11,07,15,14,0.00
2021,11,07,15,15,0.60
2021,11,07,15,16,1.50
2021,11,07,15,17,1.10
2021,11,07,15,18,4.10
2021,11,07,15,19,8.60
2021,11,07,15,20,2.60
2021,11,07,15,21,2.80
2021,11,07,15,22,0.60
2021,11,07,15,23,0.80
2021,11,07,15,24,0.40
2021,11,07,15,25,0.20
2021,11,07,15,26,2.40
2021,11,07,15,27,2.30
2021,11,07,15,28,5.20
2021,11,07,15,29,2.40
2021,11,07,15,30,2.50
2021,11,07,15,31,3.20
2021,11,07,15,32,1.80
2021,11,07,15,33,2.00
2021,11,07,15,34,2.90
2021,11,07,15,35,2.60
2021,11,07,15,36,1.60
2021,11,07,15,37,0.40
2021,11,07,15,38,1.40
2021,11,07,15,39,2.90
2021,11,07,15,40,1.10
2021,11,07,15,41,4.00
2021,11,07,15,42,2.20
2021,11,07,15,43,3.40
2021,11,07,15,44,0.60
2021,11,07,15,45,0.40
2021,11,07,15,46,1.30
2021,11,07,15,47,0.00
2021,11,07,15,48,1.10
2021,11,07,15,49,2.10
2021,11,07,15,50,2.10
2021,11,07,15,51,1.80
2021,11,07,15,52,3.60
2021,11,07,15,53,2.80
2021,11,07,15,54,5.00
2021,11,07,15,55,4.00
2021,11,07,15,56,4.10
2021,11,07,15,57,0.00
2021,11,07,15,58,0.00
2021,11,07,15,59,0.60
2021,11,07,16,00,1.70
2021,11,07,16,01,1.50
2021,11,07,16,02,4.60
2021,11,07,16,03,0.70
2021,11,07,16,04,0.00
2021,11,07,16,05,0.00
2021,11,07,16,06,0.00
2021,11,07,16,07,3.80
2021,11,07,16,08,2.70
2021,11,07,16,09,3.20
2021,11,07,16,10,3.00
2021,11,07,16,11,0.90
2021,11,07,16,12,2.40
2021,11,07,16,13,0.20
2021,11,07,16,14,0.20
2021,11,07,16,15,2.40
2021,11,07,16,16,1.70
2021,11,07,16,17,3.80
2021,11,07,16,18,2.00
2021,11,07,16,19,0.70
2021,11,07,16,20,4.30
2021,11,07,16,21,2.60
2021,11,07,16,22,0.10
2021,11,07,16,23,0.00
2021,11,07,16,24,0.00
2021,11,07,16,25,1.10
2021,11,07,16,26,0.70
2021,11,07,16,27,0.00
2021,11,07,16,28,0.30
2021,11,07,16,29,0.50
2021,11,07,16,30,0.10
2021,11,07,16,31,0.00
2021,11,07,16,32,0.00
2021,11,07,16,33,0.00
2021,11,07,16,34,0.00
2021,11,07,16,35,0.00
2021,11,07,16,36,0.50
2021,11,07,16,37,0.00
2021,11,07,16,38,0.00
2021,11,07,16,39,2.60
2021,11,07,16,40,1.60
2021,11,07,16,41,0.40
2021,11,07,16,42,2.60
2021,11,07,16,43,2.30
2021,11,07,16,44,0.00
2021,11,07,16,45,1.30
2021,11,07,16,46,0.20
2021,11,07,16,47,0.00
2021,11,07,16,48,0.00
2021,11,07,16,49,0.00
2021,11,07,16,50,0.00
2021,11,07,16,51,0.00
2021,11,07,16,52,0.00
2021,11,07,16,53,0.00
2021,11,07,16,54,0.00
2021,11,07,16,55,0.00
2021,11,07,16,56,0.80
2021,11,07,16,57,0.00
2021,11,07,16,58,0.00
2021,11,07,16,59,0.00
2021,11,07,17,00,0.00
2021,11,07,17,01,0.70
2021,11,07,17,02,0.60
2021,11,07,17,03,0.00
2021,11,07,17,04,0.00
2021,11,07,17,05,0.00
2021,11,07,17,06,0.00
2021,11,07,17,07,0.00
2021,11,07,17,08,0.00
2021,11,07,17,09,0.00
2021,11,07,17,10,0.00
2021,11,07,17,11,0.00
2021,11,07,17,12,0.00
2021,11,07,17,13,0.00
2021,11,07,17,14,1.20
2021,11,07,17,15,0.60
2021,11,07,17,16,1.10
2021,11,07,17,17,0.50
2021,11,07,17,18,0.50
2021,11,07,17,19,1.00
2021,11,07,17,20,0.00
2021,11,07,17,21,0.20
2021,11,07,17,22,0.00
2021,11,07,17,23,0.00
2021,11,07,17,24,0.00
2021,11,07,17,25,0.00
2021,11,07,17,26,0.00
2021,11,07,17,27,0.00
2021,11,07,17,28,0.00
2021,11,07,17,29,0.00
2021,11,07,17,30,0.00
2021,11,07,17,31,0.00
2021,11,07,17,32,0.00
2021,11,07,17,33,0.00
2021,11,07,17,34,0.10
2021,11,07,17,35,0.00
2021,11,07,17,36,0.00
2021,11,07,17,37,0.00
2021,11,07,17,38,0.00
2021,11,07,17,39,0.00
2021,11,07,17,40,0.00
2021,11,07,17,41,0.00
2021,11,07,17,42,0.00
2021,11,07,17,43,0.00
2021,11,07,17,44,0.00
2021,11,07,17,45,0.00
2021,11,07,17,46,0.00
2021,11,07,17,47,0.00
2021,11,07,17,48,0.00
2021,11,07,17,49,0.00
2021,11,07,17,50,0.00
2021,11,07,17,51,0.00
2021,11,07,17,52,0.00
2021,11,07,17,53,0.00
2021,11,07,17,54,0.00
2021,11,07,17,55,0.00
2021,11,07,17,56,0.00
2021,11,07,17,57,0.00
2021,11,07,17,58,0.00
2021,11,07,17,59,0.00
2021,11,07,18,00,0.00
2021,11,07,18,01,0.00
2021,11,07,18,02,0.00
2021,11,07,18,03,0.00
2021,11,07,18,04,0.00
2021,11,07,18,05,0.00
2021,11,07,18,06,0.00
2021,11,07,18,07,0.00